Location: Karaa?a�
(36.7158°N, 30.4165°E)
Time: 01:15:52
(UTC+00:00)

Resurs 01 Rocket - Pass Details

Date: 09 April 2020
Orbit: 634 x 644 km, 98.0° (Epoch: 06 June)

Event Time Altitude Azimuth Distance (km) Brightness Sun altitude
Exits shadow 19:17:45 30° 279° (W) 1,142 3.3 -31.4°
Drops below altitude 10° 19:21:05 10° 326° (NW) 2,028 5.0 -31.9°
Sets 19:23:30 0° 337° (NNW) 2,943 5.9 -32.2°
